TIME,DELAY(SENSOR),PRES,OXYGEN,RAWTEMP,T(OPTODE),TCPHASE,FLUOR,BETA(BETA700),BETA(BETA412),BETA(BETA440),CDOM,C(CSC),ED(ED412.20),ED(ED444.00),ED(ED489.60),ED(ED554.30),LU(LU412.10),LU(LU443.90),LU(LU489.70),LU(LU554.70),COMP,TILTX,TILTY,CHECK
1335584382,5812,893.8099975585938000,39.4443893432617200,566.7692260742188000,4.2759151458740230,55.6686782836914060,55,102,102,79,83,15463,0,0,0,0,2147126829,2147771309,2147577106,2147572598,1159,2,13,31160
1335587978,5810,964.3200073242188000,44.4862289428710940,572.8817749023438000,4.0859718322753910,54.9915809631347660,55,102,100,104,84,15451,0,0,0,0,2147123364,2147777078,2147574345,2147574080,756,2,13,3995
1335591578,5809,968.8499755859375000,45.2485885620117200,575.1912841796875000,4.0141239166259770,54.9112205505371100,55,104,102,77,82,15456,0,0,0,0,2147126418,2147775533,2147575424,2147571145,41,2,13,59328
1335595178,5810,998.4299926757812000,46.3730506896972660,579.0499267578125000,3.8939819335937500,54.8012084960937500,55,99,102,80,83,15460,0,0,0,0,2147128027,2147781476,2147575597,2147571373,450,2,13,30686
1335598778,5812,1009.4899902343750000,47.2001495361328100,580.1221923828125000,3.8605690002441406,54.6961097717285160,55,98,102,77,84,15454,0,0,0,0,2147124745,2147775945,2147575872,2147569033,75,2,13,54359
1335602378,5811,1019.8099975585938000,47.3050918579101560,579.8845825195312000,3.8679730892181396,54.6796417236328100,55,99,101,79,84,15457,0,0,0,0,2147125906,2147779904,2147575232,2147570304,124,2,13,35770
1335605978,5811,1023.3499755859375000,45.9659500122070300,578.8811035156250000,3.8992390632629395,54.8578109741210940,55,99,101,78,84,15456,0,0,0,0,2147126345,2147778020,2147576219,2147570212,3045,2,13,52263
1335609578,5810,1017.7199707031250000,45.9409217834472660,579.5065917968750000,3.8797509670257570,54.8649711608886700,55,99,103,78,83,15453,0,0,0,0,2147124251,2147777581,2147580827,2147567908,458,2,13,56648
1335613178,5808,1018.9299926757812000,45.7322807312011700,580.0737915039062000,3.8620779514312744,54.9025001525878900,55,97,103,78,83,15452,0,0,0,0,2147125074,2147781357,2147576594,2147571602,3583,2,13,32325
1335616778,5808,1022.5499877929688000,46.3012008666992200,579.7719116210938000,3.8714869022369385,54.8197784423828100,56,98,102,79,83,15452,0,0,0,0,2147126518,2147778962,2147575021,2147573110,3467,2,13,12775
1335620378,5808,1018.7899780273438000,45.8073997497558600,580.0720825195312000,3.8621311187744140,54.8875617980957000,55,99,102,79,83,15448,0,0,0,0,2147128502,2147775378,2147577554,2147572516,193,2,13,6611
1335623978,5808,1018.9600219726562000,48.8469810485839840,581.0792236328125000,3.8307440280914307,54.4809188842773440,54,100,101,78,83,15450,0,0,0,0,2147127780,2147775350,2147578212,2147570203,105,2,13,26474
1335627578,5808,1021.4000244140625000,48.9637184143066400,580.5189208984375000,3.8482060432434080,54.4583702087402340,55,100,101,78,83,15449,0,0,0,0,2147125769,2147777307,2147573705,2147570532,134,2,13,27169
1335631178,5809,1022.0800170898438000,49.2977790832519500,580.7105102539062000,3.8422360420227050,54.4151496887207000,56,99,100,78,83,15448,0,0,0,0,2147128996,2147775981,2147577152,2147569124,217,2,13,5004
1335634778,5809,1020.7899780273438000,49.2668418884277340,580.9539184570312000,3.8346478939056396,54.4201202392578100,55,100,102,78,84,15448,0,0,0,0,2147126902,2147777380,2147579008,2147569782,12,2,13,10880
1335638378,5807,1027.2399902343750000,49.3072700500488300,580.5302734375000000,3.8478510379791260,54.4095115661621100,56,100,102,79,83,15444,0,0,0,0,2147124745,2147776521,2147575396,2147570834,317,2,13,49244
1335641978,5810,1032.9200439453125000,46.9774589538574200,579.8776245117188000,3.8681929111480713,54.7228813171386700,54,99,102,79,84,15444,0,0,0,0,2147125046,2147776777,2147575478,2147570011,3197,2,13,25648
1335645578,5811,1030.5600585937500000,45.4875297546386700,579.6329956054688000,3.8758130073547363,54.9270706176757800,55,99,102,78,84,15444,0,0,0,0,2147123885,2147780754,2147576137,2147568649,71,2,13,31634
1335649178,5808,1028.8399658203125000,45.6665306091308600,580.0531005859375000,3.8627219200134277,54.9100189208984400,54,98,102,78,84,15439,0,0,0,0,2147125787,2147783168,2147576630,2147571355,848,2,13,15725
1335652778,5808,1030.7900390625000000,46.0885391235351560,579.4345703125000000,3.8819940090179443,54.8433799743652340,55,99,102,78,83,15441,0,0,0,0,2147125376,2147773924,2147577792,2147572041,108,2,13,32211
1335656378,5807,1022.6500244140625000,45.4971885681152340,579.7348022460938000,3.8726410865783690,54.9288482666015600,54,102,101,80,83,15440,0,0,0,0,2147125686,2147781138,2147578249,2147572242,96,2,13,13287
1335659978,5811,1035.8199462890625000,48.9187812805175800,580.2614746093750000,3.8562281131744385,54.4599304199218750,55,100,102,78,83,15441,0,0,0,0,2147127277,2147780205,2147575533,2147573257,3537,2,13,64252
1335663578,5811,1031.3199462890625000,46.6602210998535160,579.7042236328125000,3.8735959529876710,54.7654800415039060,56,98,102,78,84,15439,0,0,0,0,2147125458,2147777252,2147577389,2147570304,3542,2,13,23821
1335667178,5809,1029.7199707031250000,48.3356094360351560,580.7285766601562000,3.8416709899902344,54.5432395935058600,54,99,103,80,84,15438,0,0,0,0,2147126326,2147782107,2147577234,2147572717,3419,2,13,11210
1335670778,5811,1024.9399414062500000,49.3613815307617200,580.9824218750000000,3.8337590694427490,54.4099998474121100,53,99,100,78,84,15439,0,0,0,0,2147127113,2147779547,2147576128,2147572461,8,2,13,11634
1335674378,5810,1026.9000244140625000,48.3982200622558600,581.7681884765625000,3.8092648983001710,54.5474815368652340,55,99,101,78,84,15437,0,0,0,0,2147128073,2147778925,2147576228,2147571090,3413,2,13,43163
1335677978,5810,1028.0200195312500000,48.5814094543457000,581.7852172851562000,3.8087329864501953,54.5242805480957000,55,133,102,79,83,15436,0,0,0,0,2147124196,2147775963,2147574317,2147571547,2938,2,13,2971
1335681578,5809,1017.8599853515625000,47.3338584899902340,582.1400146484375000,3.7976739406585693,54.7043113708496100,55,102,101,77,84,15436,0,0,0,0,2147127515,2147779062,2147575734,2147570861,3231,2,13,59756
1335685178,5811,1025.0500488281250000,47.1397094726562500,582.0443115234375000,3.8006570339202880,54.7277908325195300,55,98,102,78,83,15436,0,0,0,0,2147124635,2147773449,2147572507,2147571273,31,2,13,63892
1335688778,5808,1024.6899414062500000,47.6587486267089840,581.7526245117188000,3.8097519874572754,54.6486091613769500,55,101,101,78,84,15432,0,0,0,0,2147123785,2147775908,2147575396,2147570944,61,2,13,35596
1335692378,5811,1030.6700439453125000,47.8987808227539060,581.3372802734375000,3.8226950168609620,54.6139984130859400,55,99,103,80,83,15432,0,0,0,0,2147121929,2147775515,2147570925,2147571108,559,2,13,32604
1335695978,5808,1036.3800048828125000,48.4679489135742200,581.1295166015625000,3.8291759490966797,54.5347900390625000,53,115,101,79,84,15433,0,0,0,0,2147123510,2147777920,2147577142,2147568850,3139,2,13,38130
1335699578,5810,1032.9799804687500000,48.4137687683105500,580.7404174804688000,3.8413050174713135,54.5401000976562500,54,98,102,79,83,15433,0,0,0,0,2147125641,2147776210,2147573147,2147566418,80,2,13,40476
1335703178,5808,1027.4799804687500000,46.3307304382324200,578.4913940429688000,3.9113790988922120,54.7991294860839840,55,98,102,80,83,15434,0,0,0,0,2147126902,2147774043,2147571638,2147569243,556,2,13,33634
1335706778,5809,1024.4200439453125000,48.4998207092285160,579.3267822265625000,3.8853530883789062,54.5094413757324200,55,100,102,82,84,15431,0,0,0,0,2147125586,2147776987,2147577298,2147571666,254,2,13,54948
1335710378,5809,1020.3300170898438000,46.2535705566406250,578.9401245117188000,3.8973999023437500,54.8160705566406250,55,101,103,79,84,15429,0,0,0,0,2147125842,2147771574,2147571748,2147572269,562,2,13,19584
1335713978,5812,1027.2600097656250000,48.6400909423828100,579.9752807617188000,3.8651471138000490,54.4932708740234400,55,100,102,78,84,15426,0,0,0,0,2147126875,2147778011,2147576813,2147570797,23,2,13,35208
1335717578,5810,1026.3599853515625000,49.0298004150390600,580.6887207031250000,3.8429160118103027,54.4544982910156250,55,102,101,79,83,15428,0,0,0,0,2147122331,2147780251,2147576795,2147570313,3348,2,13,9777
1335721178,5807,1020.1099853515625000,48.1940994262695300,580.8641967773438000,3.8374440670013428,54.5665702819824200,56,100,101,78,83,15428,0,0,0,0,2147125037,2147779968,2147575835,2147568548,137,2,13,18660
1335724778,5809,1023.6500244140625000,48.8874816894531250,580.7332763671875000,3.8415260314941406,54.4740180969238300,55,100,103,78,84,15429,0,0,0,0,2147128493,2147773211,2147576365,2147571602,301,2,13,56902
1335728378,5811,1022.2199707031250000,48.3961715698242200,580.7022705078125000,3.8424890041351320,54.5396614074707000,55,99,102,77,84,15429,0,0,0,0,2147126400,2147775972,2147574244,2147570934,3429,2,13,36112
1335729055,5809,1022.0200195312500000,48.4105110168457000,580.6834716796875000,3.8430769443511963,54.5383796691894500,55,99,101,78,84,15425,0,0,0,0,2147126006,2147777499,2147572150,2147569782,136,2,13,60266
